Location: Newark
(49.3000°N, 9.4667°E)
Time: 10:42:05
(UTC+00:00)

A-11 Canister half - All Passes

Search period start: 23 May 2019 00:00
Search period end: 02 June 2019 00:00
Orbit: 1517 x 1683 km, 47.2° (Epoch: 22 May)

Date Brightness Start Highest point End Pass type
(mag) Time Alt. Az. Time Alt. Az. Time Alt. Az.
23 May - 01:28:02 10° W 01:35:04 25° SW 01:42:14 10° S visible
23 May - 16:48:35 10° S 16:56:04 28° SE 17:03:26 10° E daylight
23 May - 18:50:32 10° SW 18:59:39 62° SSE 19:08:43 10° E daylight
23 May - 20:54:56 10° W 21:04:11 80° S 21:13:32 10° E visible
23 May - 22:59:41 10° W 23:08:43 60° SSW 23:17:53 10° SE visible
24 May - 01:05:02 10° W 01:12:16 26° SW 01:19:37 10° S visible
24 May - 16:25:58 10° S 16:33:15 26° SE 16:40:27 10° E daylight
24 May - 18:27:42 10° SW 18:36:47 60° SSE 18:45:49 10° E daylight
24 May - 20:32:01 10° W 20:41:18 80° S 20:50:37 10° E visible
24 May - 22:36:47 10° W 22:45:51 62° SSW 22:55:02 10° SE visible
25 May - 00:42:03 10° W 00:49:27 28° SW 00:56:59 10° S visible
25 May - 16:03:22 10° S 16:10:28 25° SE 16:17:27 10° E daylight
25 May - 18:04:51 10° SW 18:13:55 58° SSE 18:22:55 10° E daylight
25 May - 20:09:07 10° W 20:18:25 80° S 20:27:42 10° E visible
25 May - 22:13:53 10° W 22:22:59 63° SSW 22:32:10 10° SE visible
26 May - 00:19:04 10° W 00:26:39 29° SW 00:34:21 10° SSE visible
26 May - 15:40:48 10° S 15:47:39 23° SE 15:54:26 10° E daylight
26 May - 17:42:01 10° SW 17:51:04 56° SSE 18:00:01 10° ENE daylight
26 May - 19:46:12 10° W 19:55:30 80° S 20:04:48 10° E visible
26 May - 21:51:00 10° W 22:00:07 65° SSW 22:09:18 10° ESE visible
26 May - 23:56:07 10° W 00:03:50 31° SW 00:11:41 10° SSE visible
27 May - 15:18:15 10° S 15:24:52 22° SE 15:31:24 10° E daylight
27 May - 17:19:11 10° SW 17:28:12 54° SSE 17:37:06 10° ENE daylight
27 May - 19:23:18 10° W 19:32:36 79° S 19:41:53 10° E daylight
27 May - 21:28:06 10° W 21:37:15 67° SSW 21:46:27 10° ESE visible
27 May - 23:33:10 10° W 23:41:01 33° SW 23:49:00 10° SSE visible
28 May - 14:55:44 10° S 15:02:05 20° SE 15:08:20 10° E daylight
28 May - 16:56:22 10° SW 17:05:21 52° SSE 17:14:12 10° ENE daylight
28 May - 19:00:24 10° WSW 19:09:43 79° S 19:18:59 10° E daylight
28 May - 21:05:12 10° W 21:14:22 68° SSW 21:23:34 10° ESE visible
28 May - 23:10:13 10° W 23:18:13 34° SW 23:26:19 10° SSE visible
29 May - 14:33:14 10° S 14:39:17 19° SE 14:45:15 10° E daylight
29 May - 16:33:33 10° SW 16:42:30 51° SSE 16:51:18 10° ENE daylight
29 May - 18:37:29 10° WSW 18:46:50 78° S 18:56:05 10° E daylight
29 May - 20:42:17 10° W 20:51:29 70° SSW 21:00:42 10° ESE visible
29 May - 22:47:16 10° W 22:55:23 36° SW 23:03:36 10° SSE visible
30 May - 14:10:48 10° SSE 14:16:30 18° SE 14:22:08 10° E daylight
30 May - 16:10:44 10° SW 16:19:39 49° SSE 16:28:23 10° ENE daylight
30 May - 18:14:35 10° WSW 18:23:56 77° S 18:33:11 10° E daylight
30 May - 20:19:23 10° W 20:28:36 71° SSW 20:37:49 10° ESE visible
30 May - 22:24:20 10° W 22:32:34 38° SW 22:40:53 10° SSE visible
31 May - 00:33:36 10° WSW 00:35:15 11° WSW 00:36:54 10° SW visible
31 May - 13:48:24 10° SSE 13:53:43 17° SE 13:58:58 10° E daylight
31 May - 15:47:56 10° SW 15:56:48 47° SSE 16:05:29 10° ENE daylight
31 May - 17:51:41 10° WSW 18:01:02 77° S 18:10:17 10° E daylight
31 May - 19:56:28 10° W 20:05:43 73° SSW 20:14:56 10° ESE visible
31 May - 22:01:24 10° WNW 22:09:44 40° SW 22:18:08 10° SSE visible
01 Jun - 00:09:39 10° WSW 00:12:30 12° WSW 00:15:22 10° SW visible
01 Jun - 13:26:03 10° SSE 13:30:57 15° SE 13:35:46 10° E daylight
01 Jun - 15:25:08 10° SW 15:33:57 45° SE 15:42:35 10° ENE daylight
01 Jun - 17:28:47 10° WSW 17:38:09 76° S 17:47:23 10° E daylight
01 Jun - 19:33:34 10° W 19:42:50 74° SSW 19:52:04 10° ESE daylight
01 Jun - 21:38:29 10° WNW 21:46:54 42° SW 21:55:23 10° SSE visible
01 Jun - 23:46:05 10° W 23:49:44 13° SW 23:53:24 10° SSW visible
